Regional Weather Roundup
Issued by NWS Tiyan, Guam

Home | Current Version | Previous Version | Text Only | Print | Product List | Glossary On
Versions: 1 2 3 4 5 6 7 8 9 10 11 12 13 14 15 16 17 18 19 20 21 22 23 24 25 26 27
000
ASGM40 PGUM 300012
RWRGUM
WEATHER ROUNDUP FOR THE MARIANAS
NATIONAL WEATHER SERVICE TIYAN GU
1000 AM CHST THU MAR 30 2017

GUZ001>004-300100-
MARIANA ISLANDS-

CITY           SKY/WX    TMP DP  RH WIND       PRES   REMARKS
GUAM AIRPORT   CLOUDY    81  79  94 E14G24    30.03S
ANDERSEN AFB   PTSUNNY   79  77  94 E18G26    30.04F
ROTA AIRPORT   MOSUNNY   81  73  78 NE15      30.03F
TINIAN AP      NOT AVBL
SAIPAN AP      CLOUDY    84  73  70 NE24G30   30.04S HX  91

$$





USA.gov is the U.S. government's official web portal to all federal, state and local government web resources and services.